Location: Albany
(35.0000°S, 118.0000°E)
Time: 18:20:46
(UTC-04:00)

Tianhe-1 - Visible Passes

Search period start: 24 June 2021 00:00
Search period end: 04 July 2021 00:00
Orbit: 375 x 385 km, 41.5° (Epoch: 24 June)

Date Brightness Start Highest point End Pass type
(mag) Time Alt. Az. Time Alt. Az. Time Alt. Az.
24 Jun 1.3 06:36:20 10° WSW 06:39:29 68° NNW 06:39:59 55° NNE visible
25 Jun 1.1 05:35:14 10° WSW 05:38:25 66° SSE 05:41:34 10° ENE visible
25 Jun 3.7 07:12:37 10° W 07:14:46 18° NW 07:14:46 18° NW visible
26 Jun 2.6 06:11:01 10° W 06:13:58 36° NNW 06:16:54 10° NE visible
28 Jun 3.9 05:45:55 10° W 05:48:19 20° NW 05:50:42 10° NNE visible
